{"data":{"norad_id":49318,"intl_designator":"2021-091D","name":"2021-091D","alt_names":[],"object_type":"PAYLOAD","status":"ACTIVE","operator":null,"country":"PRC","launch_date":"2021-10-14","launch_site_code":"TAISC","launch_vehicle":null,"mission":null,"orbit_class":"UNKNOWN","rcs_meters":null,"size_class":null,"mass_kg":null,"dimensions":null,"purposes":[],"wikipedia_slug":null,"has_3d_model":false,"image_url":null,"decayed_at":null,"tle_current":{"epoch":"2026-09-20T22:56:44.835072Z","epoch_age_seconds":65123,"freshness":"FRESH","line1":"1 49318U 21091D   26263.95607448  .00000006  00000+0  25560-4 0  9997","line2":"2 49318  97.4468 279.0681 0013487  67.2422 293.0171 14.00159024261484","mean_motion":14.00159024,"eccentricity":0.0013487,"inclination_deg":97.4468,"raan_deg":279.0681,"arg_perigee_deg":67.2422,"mean_anomaly_deg":293.0171,"bstar":2.556e-5,"rev_number":26148,"period_min":102.84546078817,"perigee_km":883.43760829297,"apogee_km":903.0514328065,"semimajor_km":7271.3815205497,"source":"CELESTRAK","updated_at":"2026-09-21T09:00:08.045779Z"}}}